FENGYUN 1C DEB, 30327

Orbit data source: Space-Track

FENGYUN 1C DEB, 30327 is space debris in SSO originally from a launch on Mon, 10 May 1999 UTC launched from the Taiyaun Space Center, China (TSC). Fengyun 1C debris stems from the Chinese weather satellite Fengyun-1C, which was intentionally destroyed by a Chinese anti-satellite missile in 2007. This event dramatically increased the amount of space debris, with thousands of trackable fragments posing hazards to satellites and human spaceflight. The Fengyun 1C debris cloud has become a focal point in discussions about space sustainability and the need for international regulations to prevent the creation of new debris.

Loading next visibility...
Identifier
30327, 1999-025AAN
Orbit
SSO
Last TLE update
12 hours ago
Origin
Manufacturer
Unknown
Mission
Spacecraft
Bus & Motor
Unknown
Mass
Unknown
Launch date (UTC)
1999-05-10 (26 years ago)
Launch vehicle
Unknown
Launch site
Taiyaun Space Center, China (TSC)
Object type
Payload
Rocket body
Debris
Shape & HBR
Unknown
Radar Cross Section
Small (<0.1 m²)

Expand to show TLE details & history

TLE from 12 hours ago
0 FENGYUN 1C DEB
1 30327U 99025AAN 25199.48913410  .00002158  00000-0  10329-2 0  9999
2 30327  98.4500 101.0965 0117866 208.7212 331.6359 14.16468649943573
Epoch: 2025-07-18T11:44Z
TLE epoch observation values (Epoch: 2025-07-18T11:44:21.186Z)
Latitude
0.1739°
Longitude
168.49406°
Altitude
765.596 km
Speed
7.51 km/s
True Right ascension
18h 44m 29s
True Declination
0° 10' 22"
Sunlit
Object was in full shadow at epoch
Visualization orbit readout
Latitude
-14.66052°
Longitude
166.72524°
Altitude
760.242 km
Speed
7.516 km/s
Apparent Right ascension
20h 55m 39s
Apparent Declination
-34° 12' 56"
Sunlit
Object is in full shadow
Visualization observer readout
Local Sidereal Time
12:28:08
Azimuth
99.682° ESE
Elevation
-47.854°
Doppler factor
1
Orbital elements
Apogee altitude
919.483 km
Perigee altitude
749.459 km
Semi-major axis
7,212.608 km
Eccentricity
0.01179
Inclination
98.45°
RAAN
101.0965°
Arg. of periapsis
208.7212°
True anomaly
330.98584°
Mean anomaly
331.6359°
Eccentric anomaly
331.31172°
Mean motion
3.54327 °/min
Orbital period
101.6 mins
BSTAR
0.0010329
Loading maneuver chart data...
Loading SW <> Apogee altitude chart data...
Loading historical data...
Loading historical data...
Loading historical data...
Loading historical data...
Loading historical data...
Loading historical data...
Loading historical data...
|